Clearfield, PA

8:57 PM EST on February 06, 2016 (GMT -0500)
Clearfield-Lawrence

Weather History for KFIG - August, 2013

Change the Weather History Date:

Wednesday, August 28, 2013

  Actual Average (KDUJ) Record (KDUJ)
Temperature  
Mean Temperature 74 °F 66 °F  
Max Temperature 80 °F 76 °F 90 °F (1973)
Min Temperature 68 °F 56 °F 41 °F (1968)
Degree Days  
Heating Degree Days 0 2  
Month to date heating degree days 31  
Since 1 June heating degree days 140  
Since 1 July heating degree days 55  
Cooling Degree Days 8 3  
Month to date cooling degree days 101  
Year to date cooling degree days 326  
Since 1 June cooling degree days 303  
Growing Degree Days 24 (Base 50)    
Moisture  
Dew Point 70 °F    
Average Humidity 95    
Maximum Humidity 100    
Minimum Humidity 71    
Precipitation  
Precipitation 0.08 in 0.14 in 3.19 in (1974)
Month to date precipitation 3.61  
Sea Level Pressure  
Sea Level Pressure 29.91 in    
Wind  
Wind Speed 4 mph (SSW)    
Max Wind Speed 9 mph    
Max Gust Speed -    
Visibility 5 miles    
Events Fog , Rain    
T = Trace of Precipitation, MM = Missing Value Source: NWS Daily Summary

Daily Weather History Graph

Daily Weather History Graph

Search for Another Location

Airport or City:

Trip Planner

Search our weather history database for the weather conditions in past years. The results will help you decide how hot, cold, wet, or windy it might be!

Date:

Astronomy

Aug. 28, 2013 Rise Set
Actual Time 6:36 AM EDT 7:52 PM EDT
Civil Twilight 6:08 AM EDT 8:20 PM EDT
Nautical Twilight 5:33 AM EDT 8:54 PM EDT
Astronomical Twilight 4:57 AM EDT 9:30 PM EDT
Moon No Moon Rise 2:29 PM EDT (8/28)
Length of Visible Light 14h 12m
Length of Day
13h 15m
Waning Gibbous, 47% of the Moon is Illuminated
Aug 28
Waning Gibbous
Sep 5
New
Sep 12
First Quarter
Sep 19
Full
Sep 26
Last Quarter

Hourly Weather History & Observations

Time (EDT) Temp. Dew Point Humidity Pressure Visibility Wind Dir Wind Speed Gust Speed Precip Events Conditions
12:54 AM 70.0 °F 70.0 °F 100% 29.95 in 9.0 mi SW 5.8 mph - 0.01 in   Mostly Cloudy
1:54 AM 70.0 °F 70.0 °F 100% 29.93 in 4.0 mi South 4.6 mph - 0.00 in   Overcast
2:40 AM 69.8 °F 69.8 °F 100% 29.95 in 5.0 mi SW 3.5 mph - 0.00 in Rain Light Rain
2:54 AM 70.0 °F 70.0 °F 100% 29.91 in 6.0 mi SW 3.5 mph - 0.00 in Rain Light Rain
3:03 AM 69.8 °F 69.8 °F 100% 29.95 in 5.0 mi Calm Calm - 0.00 in Rain Light Rain
3:49 AM 69.8 °F 69.8 °F 100% 29.93 in 2.0 mi Calm Calm - 0.03 in Rain Rain
3:50 AM 70.0 °F 70.0 °F 100% 29.90 in 2.0 mi Calm Calm - 0.03 in Rain Rain
3:58 AM 69.8 °F 69.8 °F 100% 29.93 in 1.2 mi South 4.6 mph - 0.01 in Rain Rain
4:07 AM 69.8 °F 69.8 °F 100% 29.93 in 0.5 mi South 5.8 mph - 0.02 in Fog , Rain Light Rain
4:22 AM 69.8 °F 69.8 °F 100% 29.93 in 0.8 mi South 5.8 mph - 0.02 in Rain Light Rain
4:32 AM 69.8 °F 69.8 °F 100% 29.93 in 1.2 mi SSW 5.8 mph - 0.02 in   Overcast
4:35 AM 69.8 °F 69.8 °F 100% 29.93 in 2.0 mi SSW 5.8 mph - 0.02 in   Overcast
4:54 AM 70.0 °F 70.0 °F 100% 29.89 in 1.8 mi SSW 4.6 mph - 0.02 in   Overcast
5:04 AM 69.8 °F 69.8 °F 100% 29.93 in 2.0 mi SW 4.6 mph - N/A   Overcast
5:16 AM 69.8 °F 69.8 °F 100% 29.93 in 2.0 mi SW 3.5 mph - N/A   Overcast
5:54 AM 70.0 °F 70.0 °F 100% 29.90 in 2.0 mi Calm Calm - N/A   Overcast
6:01 AM 69.8 °F 69.8 °F 100% 29.93 in 2.0 mi Calm Calm - N/A   Overcast
6:09 AM 69.8 °F 69.8 °F 100% 29.93 in 1.8 mi Calm Calm - N/A   Overcast
6:19 AM 69.8 °F 69.8 °F 100% 29.93 in 2.0 mi Calm Calm - N/A   Overcast
6:34 AM 69.8 °F 69.8 °F 100% 29.93 in 1.8 mi Calm Calm - 0.00 in Rain Light Rain
6:42 AM 69.8 °F 69.8 °F 100% 29.93 in 1.5 mi Calm Calm - 0.00 in   Overcast
6:54 AM 70.0 °F 70.0 °F 100% 29.90 in 0.5 mi Calm Calm - 0.00 in Fog Fog
7:10 AM 69.8 °F 69.8 °F 100% 29.94 in 0.2 mi Calm Calm - N/A Fog Fog
7:38 AM 69.8 °F 69.8 °F 100% 29.94 in 0.8 mi South 3.5 mph - 0.00 in   Overcast
7:54 AM 70.0 °F 70.0 °F 100% 29.92 in 0.8 mi SW 8.1 mph - 0.00 in   Overcast
8:02 AM 69.8 °F 69.8 °F 100% 29.94 in 1.5 mi SW 6.9 mph - N/A   Overcast
8:07 AM 69.8 °F 69.8 °F 100% 29.94 in 2.5 mi SSW 6.9 mph - N/A   Overcast
8:16 AM 69.8 °F 69.8 °F 100% 29.94 in 4.0 mi SW 6.9 mph - N/A   Overcast
8:52 AM 69.8 °F 69.8 °F 100% 29.93 in 5.0 mi SSW 6.9 mph - N/A   Overcast
8:54 AM 70.0 °F 70.0 °F 100% 29.90 in 5.0 mi SSW 5.8 mph - N/A   Overcast
9:16 AM 69.8 °F 69.8 °F 100% 29.93 in 3.0 mi SSW 5.8 mph - 0.01 in Rain Light Rain
9:29 AM 69.8 °F 69.8 °F 100% 29.92 in 4.0 mi South 4.6 mph - 0.01 in Rain Light Rain
9:36 AM 69.8 °F 69.8 °F 100% 29.92 in 4.0 mi South 4.6 mph - 0.01 in Rain Light Rain
9:54 AM 70.0 °F 70.0 °F 100% 29.89 in 5.0 mi SSW 5.8 mph - 0.01 in Rain Light Rain
10:54 AM 71.1 °F 71.1 °F 100% 29.88 in 5.0 mi South 4.6 mph - 0.01 in Rain Light Rain
11:54 AM 73.9 °F 70.0 °F 87% 29.88 in 10.0 mi SSW 4.6 mph - 0.00 in   Overcast
12:27 PM 75.2 °F 71.6 °F 89% 29.90 in 10.0 mi Variable 4.6 mph - N/A   Mostly Cloudy
12:40 PM 75.2 °F 69.8 °F 83% 29.90 in 10.0 mi SSW 4.6 mph - N/A   Scattered Clouds
12:54 PM 75.9 °F 70.0 °F 82% 29.87 in 10.0 mi WSW 5.8 mph - N/A   Scattered Clouds
1:24 PM 77.0 °F 69.8 °F 78% 29.89 in 10.0 mi SSW 9.2 mph - N/A   Overcast
1:43 PM 75.2 °F 69.8 °F 83% 29.90 in 10.0 mi SW 6.9 mph - N/A   Overcast
1:54 PM 75.0 °F 69.1 °F 82% 29.87 in 10.0 mi SW 8.1 mph - N/A   Overcast
2:29 PM 73.4 °F 71.6 °F 94% 29.89 in 10.0 mi SW 8.1 mph - N/A   Overcast
2:42 PM 75.2 °F 71.6 °F 89% 29.89 in 10.0 mi WSW 6.9 mph - N/A   Overcast
2:54 PM 77.0 °F 70.0 °F 79% 29.86 in 10.0 mi West 5.8 mph - N/A   Overcast
3:54 PM 78.1 °F 68.0 °F 71% 29.86 in 10.0 mi Calm Calm - N/A   Overcast
4:54 PM 77.0 °F 68.0 °F 74% 29.85 in 10.0 mi SSW 4.6 mph - N/A   Mostly Cloudy
5:54 PM 79.0 °F 69.1 °F 72% 29.85 in 10.0 mi Calm Calm - N/A   Mostly Cloudy
6:30 PM 75.2 °F 71.6 °F 89% 29.88 in 10.0 mi ENE 6.9 mph - N/A   Overcast
6:38 PM 75.2 °F 71.6 °F 89% 29.89 in 10.0 mi NNE 6.9 mph - N/A   Mostly Cloudy
6:54 PM 75.0 °F 71.1 °F 87% 29.86 in 10.0 mi NE 4.6 mph - N/A   Scattered Clouds
7:54 PM 73.0 °F 71.1 °F 93% 29.88 in 9.0 mi ENE 4.6 mph - N/A   Mostly Cloudy
8:54 PM 72.0 °F 71.1 °F 97% 29.90 in 8.0 mi Calm Calm - N/A   Mostly Cloudy
9:54 PM 70.0 °F 70.0 °F 100% 29.92 in 8.0 mi NE 3.5 mph - N/A   Partly Cloudy
10:54 PM 70.0 °F 69.1 °F 97% 29.93 in 9.0 mi Calm Calm - N/A   Clear
11:10 PM 68.0 °F 68.0 °F 100% 29.95 in 1.8 mi Calm Calm - N/A   Partly Cloudy
11:19 PM 68.0 °F 68.0 °F 100% 29.95 in 1.0 mi Calm Calm - N/A   Partly Cloudy
11:27 PM 68.0 °F 68.0 °F 100% 29.95 in 3.0 mi Calm Calm - N/A   Clear
11:54 PM 68.0 °F 68.0 °F 100% 29.93 in 6.0 mi Calm Calm - N/A   Clear